SEEDS

Satellite information

Favourite Embed

Satellite Type and Status

PAYLOADIN ORBIT

Key statistics

Satellite SEEDS at a glance.

Uptime

6341

Days in orbit

Revolutions

≈ 15.2

Per day

Orbit

SSO

Sun Synchronous Orbit

Inclination

97.7

Latest

Satellite identification and parameters

Extended collection of information and parameters for SEEDS.

Object identification

Identified? True

Debris? False

Object name: SEEDS

International designator: 2008-021J

Object number (NORAD): 32791

Object ID (CCSDS): 32791

Country: JAPAN (JPN)

Current information (Y/N): Y

RCS size: SMALL

Orbital parameters

Period: 94.685 minutes

Inclination: 97.7346 deg

SMA: 6881.481 km

Apoapsis: 505.482 km

Periapsis: 501.211 km

RAAN: 231.1075 deg

Eccentricy: 0.00031033

Argument of periapsis: 175.5547 deg

Mean anomaly: 184.5716 deg

Mean motion: 15.20827119 rev/day

Mean motion (dot): 0.0001857 rev/day2

B* drag term: 0.00084344622 1/REarth

Two-line elements (TLE)

Creation date: Sept. 6, 2025, 2:09 a.m.

Reference frame: TEME

Reference center: EARTH

Epoch: Sept. 5, 2025, 10:31 p.m. UTC

TLE line 0: 0 SEEDS

TLE line 1: 1 32791U 08021J 25248.93857904 .00018570 00000-0 84345-3 0 9997

TLE line 2: 2 32791 97.7346 231.1075 0003103 175.5547 184.5716 15.20827119943914

Live tracking on map

Real-time ground track for satellite SEEDS.

In-orbit conjunctions

There are no conjunctions computed for SEEDS, at the moment. Check back to stay up to date, as we update our databases every day.

Go to all conjunctions

Associated space launch

Indian Earth observation satellite. Launched alongside 9 nanosatellites.

SEEDS was lifted into orbit during the mission ‘PSLV | Cartosat 2A’, on board a PSLV space rocket.

The launch took place on April 28, 2008, 3:53 a.m. from Satish Dhawan Space Centre Second Launch Pad.

For more information about the launch, click the button.

Launch to space PSLV | Cartosat 2A
PSLV | Cartosat 2A

Agency: N/A

Status: Launch Successful

Launch date: April 28, 2008, 3:53 a.m. UTC

Rocket: PSLV

Launch pad: Satish Dhawan Space Centre Second Launch Pad

Location: Satish Dhawan Space Centre, India

...

Latest news about this satellite

There are no fresh news available about this satellite. Check back as we update our databases every day.


Newsletter sign-up

Weekly statistics, charts and insights to help you stay on top of the space industry.